Погода в Маратах

Россия / Пермский край     59˚41′44″N   54˚55′05″E
темп.,
°C
ветер,
м/с
пор.,
м/с
влажн.,
%
обл.,
%
осадки,
мм/ч
давл.,
гПа
погр.,
м
16 января, сб
сб1623:00−18˚зюз119918 0.0 101520
02:00−18˚ссз119926 0.0 101520
05:00−18˚св239842 0.0 101447
08:00−18˚св2498100 0.0 101187
11:00−17˚св4995100 0.0 1009240
14:00−14˚св4893100 0.0 1006311
17:00−13˚св3895100 2.5 1002358
20:00−13˚св3795100 3.3 1000352
17 января, вс
вс1723:00−12˚св3696100 5.9 999361
02:00−12˚всв2596100 2.3 997316
05:00−13˚св2596100 3.4 997228
08:00−14˚ссв3696100 0.8 997286
11:00−15˚с3795100 1.3 999369
14:00−17˚ссз4794100 0.2 1001366
17:00−20˚ссз3798100 0.3 1005228
20:00−25˚сз239875 0.0 100878
18 января, пн
пн1823:00−27˚сз229838 0.0 101120
02:00−27˚з22970 0.0 101319
05:00−27˚зюз22970 0.0 101419
08:00−25˚ююз359758 0.0 1014132
11:00−22˚юз379878 0.1 1015257
14:00−19˚з3595100 0.4 1015396
17:00−21˚зсз1298100 0.5 101622
20:00−24˚зсз1110098 0.0 101820
19 января, вт
вт1923:00−26˚сз1110093 0.1 101919
02:00−27˚с129957 0.0 102119
05:00−29˚ссв129933 0.0 102219
08:00−30˚ссв12990 0.0 102319
11:00−30˚ссв22980 0.0 102429
14:00−26˚ссв23960 0.0 1024152
17:00−29˚ссв23960 0.0 102322
20:00−30˚ссв23915 0.0 102422
20 января, ср
ср2023:00−30˚ссв229118 0.0 102319
02:00−30˚ссв228810 0.0 102319
05:00−30˚ссв11865 0.0 102419
08:00−30˚ссв11845 0.0 102419
11:00−29˚ююв00825 0.0 102419
14:00−23˚ююз12850 0.0 1024138
17:00−25˚ююз22880 0.0 102420
20:00−26˚ю238675 0.0 102459